AXM6777 WBGB-WBGG

Flight info

Callsign AXM6777
Flight time N/A
Altitude 28000
Route BASUV DCT KIKAK
Aircraft A20N/M-SDE2E3FGHIRWXY/LB1

Departure

Time 2026-04-29 05:13
Airport Bintulu Airport (WBGB)

Arrival

Time N/A
Airport Kuching International Airport (WBGG)
Time Latitude Longitude Altitude Speed Heading
2026-04-29 05:09 3.13526 113.01729 82 ft 0 kts 165°
2026-04-29 05:11 3.13528 113.01728 82 ft 1 kts 165°
2026-04-29 05:12 3.13515 113.01731 82 ft 20 kts 166°
2026-04-29 05:12 3.13141 113.01817 82 ft 87 kts 166°
2026-04-29 05:12 3.12373 113.01986 139 ft 137 kts 167°
2026-04-29 05:12 3.11280 113.02226 224 ft 174 kts 167°
2026-04-29 05:13 3.10136 113.02477 753 ft 165 kts 167°
2026-04-29 05:13 3.08981 113.02727 1068 ft 179 kts 167°
2026-04-29 05:13 3.07646 113.03008 1112 ft 212 kts 167°
2026-04-29 05:13 3.06091 113.03333 1055 ft 240 kts 167°
2026-04-29 05:14 3.04396 113.03689 1076 ft 246 kts 167°
2026-04-29 05:14 3.02710 113.04045 1085 ft 245 kts 167°
2026-04-29 05:14 3.01029 113.04401 1178 ft 250 kts 167°
2026-04-29 05:14 2.99309 113.04757 1797 ft 253 kts 171°
2026-04-29 05:15 2.97571 113.04654 2588 ft 251 kts 202°
2026-04-29 05:15 2.96055 113.03842 3360 ft 251 kts 213°
2026-04-29 05:15 2.94585 113.02882 4052 ft 255 kts 213°
2026-04-29 05:15 2.93066 113.01940 4757 ft 259 kts 210°
2026-04-29 05:16 2.91484 113.01032 5496 ft 262 kts 208°
2026-04-29 05:16 2.89905 113.00158 6196 ft 265 kts 211°
2026-04-29 05:16 2.88558 112.98885 6880 ft 270 kts 240°
2026-04-29 05:16 2.87991 112.97082 7471 ft 277 kts 267°
2026-04-29 05:17 2.87945 112.95122 7898 ft 291 kts 270°
2026-04-29 05:17 2.87933 112.93077 8397 ft 301 kts 270°
2026-04-29 05:17 2.87908 112.90967 9041 ft 306 kts 269°
2026-04-29 05:17 2.87867 112.88830 9701 ft 310 kts 269°
2026-04-29 05:18 2.87816 112.86681 10327 ft 314 kts 269°
2026-04-29 05:18 2.87756 112.84426 10669 ft 330 kts 269°
2026-04-29 05:18 2.87691 112.82104 10954 ft 346 kts 269°
2026-04-29 05:18 2.87622 112.79632 11223 ft 362 kts 269°
2026-04-29 05:19 2.87549 112.77078 11487 ft 377 kts 269°
2026-04-29 05:19 2.87472 112.74430 11873 ft 387 kts 268°
2026-04-29 05:19 2.87314 112.71713 12441 ft 391 kts 261°
2026-04-29 05:19 2.86630 112.69102 13037 ft 392 kts 248°
2026-04-29 05:20 2.85442 112.66634 13625 ft 394 kts 241°
2026-04-29 05:20 2.84131 112.64219 14169 ft 397 kts 240°
2026-04-29 05:20 2.82800 112.61800 14723 ft 399 kts 240°
2026-04-29 05:20 2.81475 112.59373 15234 ft 402 kts 240°
2026-04-29 05:21 2.80120 112.56873 15740 ft 405 kts 241°
2026-04-29 05:21 2.78789 112.54401 16235 ft 408 kts 241°
2026-04-29 05:21 2.77443 112.51894 16726 ft 410 kts 241°
2026-04-29 05:21 2.76097 112.49381 17212 ft 413 kts 241°
2026-04-29 05:22 2.74735 112.46832 17697 ft 415 kts 241°
2026-04-29 05:22 2.73373 112.44286 18147 ft 418 kts 241°
2026-04-29 05:22 2.72008 112.41731 18561 ft 421 kts 241°
2026-04-29 05:22 2.70624 112.39143 18968 ft 424 kts 241°
2026-04-29 05:23 2.69218 112.36511 19378 ft 428 kts 241°
2026-04-29 05:23 2.67821 112.33895 19755 ft 431 kts 241°
2026-04-29 05:23 2.66416 112.31251 20125 ft 434 kts 242°
2026-04-29 05:23 2.64987 112.28563 20510 ft 437 kts 242°
2026-04-29 05:24 2.63562 112.25884 20881 ft 440 kts 242°
2026-04-29 05:24 2.62125 112.23188 21233 ft 443 kts 242°
2026-04-29 05:24 2.60664 112.20450 21594 ft 446 kts 242°
2026-04-29 05:24 2.59191 112.17692 21940 ft 448 kts 242°
2026-04-29 05:25 2.57726 112.14948 22294 ft 451 kts 242°
2026-04-29 05:25 2.56245 112.12176 22650 ft 453 kts 242°
2026-04-29 05:25 2.54758 112.09390 22998 ft 455 kts 241°
2026-04-29 05:25 2.53271 112.06606 23356 ft 457 kts 241°
2026-04-29 05:26 2.51771 112.03798 23724 ft 459 kts 241°
2026-04-29 05:26 2.50267 112.00983 24075 ft 460 kts 241°
2026-04-29 05:26 2.48765 111.98174 24515 ft 459 kts 241°
2026-04-29 05:26 2.47249 111.95336 25010 ft 457 kts 241°
2026-04-29 05:27 2.45758 111.92545 25475 ft 456 kts 240°
2026-04-29 05:27 2.42774 111.86967 26343 ft 453 kts 240°
2026-04-29 05:27 2.41294 111.84197 26775 ft 452 kts 240°
2026-04-29 05:28 2.39823 111.81448 27190 ft 451 kts 240°
2026-04-29 05:28 2.38352 111.78696 27499 ft 453 kts 240°
2026-04-29 05:28 2.36853 111.75893 27732 ft 457 kts 240°
2026-04-29 05:28 2.35356 111.73097 27823 ft 459 kts 240°
2026-04-29 05:29 2.33841 111.70267 27828 ft 460 kts 240°
2026-04-29 05:29 2.32336 111.67454 27832 ft 460 kts 240°
2026-04-29 05:29 2.30829 111.64637 27833 ft 460 kts 240°
2026-04-29 05:29 2.29308 111.61793 27833 ft 460 kts 240°
2026-04-29 05:30 2.27808 111.58991 27832 ft 460 kts 240°
2026-04-29 05:30 2.26301 111.56174 27832 ft 460 kts 240°
2026-04-29 05:30 2.24794 111.53358 27832 ft 460 kts 240°
2026-04-29 05:30 2.23282 111.50531 27831 ft 460 kts 240°
2026-04-29 05:31 2.21760 111.47684 27832 ft 460 kts 240°
2026-04-29 05:31 2.20273 111.44906 27832 ft 460 kts 240°
2026-04-29 05:31 2.18753 111.42065 27833 ft 459 kts 240°
2026-04-29 05:31 2.17249 111.39253 27833 ft 460 kts 240°
2026-04-29 05:32 2.15738 111.36429 27835 ft 460 kts 240°
2026-04-29 05:32 2.14244 111.33636 27833 ft 459 kts 240°
2026-04-29 05:32 2.12740 111.30810 27832 ft 459 kts 240°
2026-04-29 05:32 2.11236 111.27985 27570 ft 458 kts 240°
2026-04-29 05:33 2.09740 111.25182 26660 ft 465 kts 240°
2026-04-29 05:33 2.08215 111.22334 25780 ft 468 kts 241°
2026-04-29 05:33 2.06696 111.19494 25207 ft 455 kts 241°
2026-04-29 05:33 2.05234 111.16759 24630 ft 438 kts 241°
2026-04-29 05:34 2.03815 111.14102 23905 ft 425 kts 241°
2026-04-29 05:34 2.02448 111.11546 23267 ft 412 kts 241°
2026-04-29 05:34 2.01135 111.09091 22619 ft 401 kts 241°
2026-04-29 05:34 1.99838 111.06667 22063 ft 388 kts 241°
2026-04-29 05:35 1.98593 111.04341 21485 ft 378 kts 241°
2026-04-29 05:35 1.97365 111.02046 20850 ft 371 kts 241°